This demonstration page uses our WeatherBlox Daily Observations layout. Learn more.

Hourly Observations for February 23, 2020

Temp ( °F °C ) Dew Point ( °F °C ) Humidity (%) Winds ( mph kmh ) Pressure ( in mb ) Visibility ( mi km ) Precip ( " mm )
12:15 am 00:15 Clear 32 -0.1 21 -6.1 64 64 Calm 30.04 1017 10 16.0934 0 0
12:35 am 00:35 Clear 32 -0.2 20 -6.5 63 63 Calm 30.04 1017 10 16.0934 0 0
12:55 am 00:55 Clear 29 -1.4 19 -7 66 66 Calm 30.05 1018 10 16.0934 0 0
1:15 am 01:15 Clear 29 -1.4 20 -6.9 67 67 Calm 30.04 1017 10 16.0934 0 0
1:35 am 01:35 Clear 28 -2.2 21 -5.9 76 76 Calm 30.05 1017 10 16.0934 0 0
1:55 am 01:55 Clear 29 -1.7 21 -6 73 73 Calm 30.04 1017 10 16.0934 0 0
2:15 am 02:15 Clear 30 -1.2 21 -6 70 70 Calm 30.04 1017 10 16.0934 0 0
2:35 am 02:35 Clear 31 -0.6 22 -5.7 69 69 Calm 30.03 1017 10 16.0934 0 0
2:55 am 02:55 Clear 32 0 24 -4.7 71 71 SW 6 9 30.02 1017 10 16.0934 0 0
3:15 am 03:15 Clear 34 1.1 23 -5.1 64 64 Calm 30.01 1016 10 16.0934 0 0
3:35 am 03:35 Clear 32 0.1 23 -5 69 69 NW 3 6 30.02 1017 10 16.0934 0 0
3:55 am 03:55 Clear 31 -0.5 22 -5.3 70 70 WNW 3 6 30.03 1017 10 16.0934 0 0
4:15 am 04:15 Clear 32 -0.2 22 -5.4 68 68 NW 6 9 30.03 1017 10 16.0934 0 0
4:35 am 04:35 Clear 32 0 23 -5.2 68 68 NW 6 9 30.01 1016 10 16.0934 0 0
4:55 am 04:55 Clear 32 -0.1 23 -4.9 70 70 WNW 5 7 30.03 1017 10 16.0934 0 0
5:15 am 05:15 Clear 32 0.2 24 -4.7 70 70 NNW 6 9 30.02 1017 10 16.0934 0 0
5:35 am 05:35 Clear 32 0 23 -4.8 70 70 NNW 6 9 30.03 1017 10 16.0934 0 0
5:55 am 05:55 Clear 35 1.5 24 -4.7 64 64 NW 5 7 30.01 1016 10 16.0934 0 0
6:15 am 06:15 Clear 35 1.9 23 -4.8 62 62 NNW 5 7 30.01 1016 10 16.0934 0 0
6:35 am 06:35 Clear 35 1.8 23 -4.8 62 62 NW 3 6 30.01 1016 10 16.0934 0 0
6:55 am 06:55 Clear 35 1.7 23 -4.9 62 62 NNW 5 7 30.02 1017 10 16.0934 0 0
7:15 am 07:15 Clear 33 0.4 23 -4.8 68 68 NNW 5 7 30.03 1017 10 16.0934 0 0
7:35 am 07:35 Sunny 33 0.8 24 -4.7 67 67 Calm 30.03 1017 10 16.0934 0 0
7:55 am 07:55 Sunny 34 1 24 -4.2 69 69 N 3 6 30.04 1017 10 16.0934 0 0
8:15 am 08:15 Sunny 35 1.5 25 -3.8 68 68 N 5 7 30.04 1017 10 16.0934 0 0
8:35 am 08:35 Sunny 37 2.5 26 -3.6 64 64 NNW 7 11 30.04 1017 10 16.0934 0 0
8:55 am 08:55 Sunny 38 3.2 25 -4 60 60 N 7 11 30.04 1017 10 16.0934 0 0
9:15 am 09:15 Sunny 38 3.6 25 -3.9 58 58 N 6 9 30.04 1017 10 16.0934 0 0
9:35 am 09:35 Sunny 40 4.2 26 -3.6 57 57 N 6 9 30.04 1017 10 16.0934 0 0
9:55 am 09:55 Partly Cloudy 40 4.7 25 -3.7 55 55 N 6 9 30.03 1017 10 16.0934 0 0
10:15 am 10:15 Cloudy 42 5.5 26 -3.6 52 52 N 8 13 30.02 1017 10 16.0934 0 0
10:35 am 10:35 Cloudy 43 6 26 -3.5 51 51 N 6 9 30.02 1017 10 16.0934 0 0
10:55 am 10:55 Cloudy 44 6.5 27 -3 51 51 N 6 9 30 1016 10 16.0934 0 0
11:15 am 11:15 Cloudy 45 7.4 26 -3.2 47 47 N 13 20 30 1016 10 16.0934 0 0
11:35 am 11:35 Cloudy 46 7.5 26 -3.4 46 46 N 13 20 29.98 1015 10 16.0934 0 0
11:55 am 11:55 Cloudy 46 7.6 26 -3.3 46 46 NNE 9 15 29.98 1015 10 16.0934 0 0
12:15 pm 12:15 Mostly Cloudy 47 8.6 27 -3 44 44 E 3 6 29.99 1015 10 16.0934 0 0
12:35 pm 12:35 Sunny 49 9.3 27 -2.9 43 43 NNE 12 19 29.96 1015 10 16.0934 0 0
12:55 pm 12:55 Sunny 50 10.1 26 -3.4 39 39 ENE 10 17 29.95 1014 10 16.0934 0 0
1:15 pm 13:15 Sunny 52 11.2 26 -3.6 36 36 NE 12 19 29.93 1014 10 16.0934 0 0
1:35 pm 13:35 Sunny 52 11.3 26 -3.4 36 36 ENE 13 20 29.92 1013 10 16.0934 0 0
1:55 pm 13:55 Sunny 54 12 24 -4.3 32 32 NE 14 22 29.91 1013 10 16.0934 0 0
2:15 pm 14:15 Partly Cloudy 55 12.8 23 -5.1 29 29 ENE 13 20 29.9 1012 10 16.0934 0 0
2:35 pm 14:35 Sunny 55 12.9 24 -4.5 30 30 NNE 14 22 29.9 1012 10 16.0934 0 0
2:55 pm 14:55 Sunny 53 11.7 24 -4.5 32 32 NE 16 26 29.9 1012 10 16.0934 0 0
3:15 pm 15:15 Mostly Cloudy 53 11.5 25 -4.1 34 34 NE 20 31 29.9 1013 10 16.0934 0 0
3:35 pm 15:35 Cloudy 52 11.2 25 -3.8 35 35 NE 17 28 29.89 1012 10 16.0934 0 0
3:55 pm 15:55 Mostly Cloudy 53 11.5 25 -3.7 35 35 NE 15 24 29.89 1012 10 16.0934 0 0
4:15 pm 16:15 Partly Cloudy 51 10.3 25 -4 37 37 NE 14 22 29.9 1013 10 16.0934 0 0
4:35 pm 16:35 Cloudy 50 9.8 25 -3.9 38 38 NE 15 24 29.9 1013 10 16.0934 0 0
4:55 pm 16:55 Cloudy 49 9.5 26 -3.6 40 40 NE 12 19 29.91 1013 10 16.0934 0 0
5:15 pm 17:15 Cloudy 48 9 25 -3.7 41 41 NE 13 20 29.91 1013 10 16.0934 0 0
5:35 pm 17:35 Cloudy 47 8.6 26 -3.5 43 43 NE 12 19 29.92 1013 10 16.0934 0 0
5:55 pm 17:55 Cloudy 46 7.9 27 -2.7 47 47 ENE 8 13 29.94 1014 10 16.0934 0 0
6:15 pm 18:15 Cloudy 46 7.5 28 -2.5 49 49 E 6 9 29.95 1014 10 16.0934 0 0
6:35 pm 18:35 Partly Cloudy 43 5.9 27 -2.6 55 55 ENE 7 11 29.97 1015 10 16.0934 0 0
6:55 pm 18:55 Clear 41 5.1 27 -2.7 57 57 NE 6 9 29.98 1015 10 16.0934 0 0
7:15 pm 19:15 Partly Cloudy 42 5.3 28 -2 60 60 NE 8 13 29.98 1015 10 16.0934 0 0
7:35 pm 19:35 Partly Cloudy 43 6.2 30 -1.2 59 59 NE 12 19 29.97 1015 10 16.0934 0 0
7:55 pm 19:55 Clear 43 6.2 30 -1.1 60 60 NE 10 17 29.97 1015 10 16.0934 0 0
8:15 pm 20:15 Partly Cloudy 42 5.7 30 -1.2 62 62 NE 10 17 29.98 1015 10 16.0934 0 0
8:35 pm 20:35 Partly Cloudy 42 5.5 30 -1 63 63 NE 10 17 29.98 1015 10 16.0934 0 0
8:55 pm 20:55 Partly Cloudy 42 5.5 30 -1.1 63 63 NE 14 22 29.98 1015 10 16.0934 0 0
9:15 pm 21:15 Mostly Cloudy 41 5.2 30 -1 65 65 NE 13 20 29.98 1015 10 16.0934 0 0
9:35 pm 21:35 Mostly Cloudy 40 4.6 30 -1 67 67 NE 13 20 29.98 1015 10 16.0934 0 0
9:55 pm 21:55 Mostly Cloudy 40 4.3 29 -1.6 66 66 NNE 12 19 29.98 1015 10 16.0934 0 0
10:15 pm 22:15 Mostly Cloudy 39 3.9 28 -2 66 66 NE 10 17 29.98 1015 10 16.0934 0 0
10:35 pm 22:35 Mostly Cloudy 38 3.6 28 -2 67 67 NE 10 17 29.98 1015 10 16.0934 0 0
10:55 pm 22:55 Cloudy 38 3.5 28 -2.1 67 67 NNE 13 20 29.97 1015 10 16.0934 0 0
11:15 pm 23:15 Cloudy 38 3.2 28 -2.3 68 68 NE 9 15 29.97 1015 10 16.0934 0 0
11:35 pm 23:35 Mostly Cloudy 37 3 28 -2.5 67 67 NE 12 19 29.98 1015 10 16.0934 0 0
11:55 pm 23:55 Cloudy 37 2.5 28 -2.5 70 70 NE 9 15 29.97 1015 10 16.0934 0 0

Powered by AerisWeather